NIMIQ 4

Last updated on Sun Oct 06 2024 00:02:38 GMT+0000 (Coordinated Universal Time)

1 33373U 08044A 24278.80954288 -.00000211 00000+0 00000+0 0 9995 2 33373 0.0229 248.4073 0001953 315.6714 19.3420 1.00269625 58763
UTC large
Height (km)
Speed (km/s)
/
Latitude / Longitude
Inclination (degrees)
Orbital Period (minutes)
Azimuth
Elevation
Range (km)
Doppler Factor

Next 0 passes for location: London (51.5072 / 0.1276)

Sorry there are no passes over London.